Date String (YYYY-MM-DD hh:mm:ss) UTC,Instrument flags,Ambient pressure (hPa),Sample flow (lpm),Bypass flow (lpm),Sample temperature (°C),Ambient temperature (°C),ASC tube jacket temperature (°C),LED temperature (°C),Box temperature (°C),Sample RH (%),Span deviation,Mass concentration (μg/m³),Mass concentration (μg/m³),Mass concentration (μg/m³)
DateTimeUTC,F1_M11,P_M11,Q1_M11,Q2_M11,T1_M11,T2_M11,T3_M11,T4_M11,T5_M11,U1_M11,ZSPAN_M11,X0_M11,X2_M11,X1_M11
2022-12-20 22:00:00,,0827.3,4.98,0.00,23.3,22.1,00.0,32.1,25.1,08.0,0002.5,0056.04,0018.87,0014.07
2022-12-20 22:01:00,,0827.2,5.04,0.00,23.3,22.2,00.0,32.1,25.1,08.0,0002.7,0054.67,0018.91,0014.09
2022-12-20 22:02:00,,0827.2,4.96,0.00,23.3,22.2,00.0,32.1,25.2,08.0,0003.5,0051.66,0018.93,0014.14
2022-12-20 22:03:00,,0827.2,5.03,0.00,23.4,22.2,00.0,32.1,25.2,08.0,0004.2,0050.95,0019.09,0014.15
2022-12-20 22:04:00,,0827.3,5.02,0.00,23.4,22.2,00.0,32.1,25.2,08.0,0005.1,0048.81,0019.13,0014.16
2022-12-20 22:05:00,,0827.2,4.95,0.00,23.4,22.2,00.0,32.1,25.2,08.0,0005.2,0049.09,0019.03,0014.15
2022-12-20 22:06:00,,0827.2,5.03,0.00,23.4,22.2,00.0,32.1,25.2,08.0,0005.1,0050.86,0019.07,0014.12
2022-12-20 22:07:00,,0827.2,5.01,0.00,23.4,22.2,00.0,32.1,25.2,08.0,0004.8,0052.14,0019.10,0014.12
2022-12-20 22:08:00,,0827.2,4.97,0.00,23.4,22.2,00.0,32.2,25.2,08.0,0004.9,0053.63,0019.33,0014.11
2022-12-20 22:09:00,,0827.2,5.02,0.00,23.4,22.2,00.0,32.2,25.2,08.0,0005.1,0053.83,0019.29,0014.08
2022-12-20 22:10:00,,0827.2,4.97,0.00,23.4,22.2,00.0,32.2,25.2,08.0,0005.0,0055.23,0019.31,0014.05
2022-12-20 22:11:00,,0827.2,5.01,0.00,23.4,22.2,00.0,32.2,25.2,07.9,0004.8,0057.18,0019.33,0014.05
2022-12-20 22:12:00,,0827.2,5.02,0.00,23.5,22.2,00.0,32.2,25.3,07.9,0005.1,0055.88,0019.23,0014.05
2022-12-20 22:13:00,,0827.1,4.95,0.00,23.5,22.2,00.0,32.2,25.3,07.9,0004.6,0057.30,0019.19,0014.05
2022-12-20 22:14:00,,0827.2,5.04,0.00,23.5,22.2,00.0,32.2,25.3,07.8,0004.6,0056.83,0019.10,0014.05
2022-12-20 22:15:00,,0827.2,5.01,0.00,23.5,22.2,00.0,32.2,25.2,07.8,0005.3,0058.84,0019.13,0014.05
2022-12-20 22:16:00,,0827.2,4.96,0.00,23.5,22.2,00.0,32.2,25.3,07.8,0005.2,0059.30,0019.14,0014.02
2022-12-20 22:17:00,,0827.1,5.02,0.00,23.5,22.2,00.0,32.2,25.3,07.8,0005.1,0057.25,0019.03,0014.01
2022-12-20 22:18:00,,0827.3,4.98,0.00,23.5,22.3,00.0,32.3,25.3,07.8,0005.3,0056.43,0018.93,0013.99
2022-12-20 22:19:00,,0827.5,4.99,0.00,23.5,22.3,00.0,32.3,25.3,07.8,0005.2,0055.33,0018.62,0013.98
2022-12-20 22:20:00,,0827.6,5.03,0.00,23.5,22.3,00.0,32.3,25.3,07.8,0005.4,0053.36,0018.46,0013.97
2022-12-20 22:21:00,,0827.3,4.97,0.00,23.5,22.3,00.0,32.3,25.3,07.8,0005.3,0052.41,0018.29,0013.97
2022-12-20 22:22:00,,0827.2,5.00,0.00,23.5,22.3,00.0,32.3,25.3,07.8,0005.3,0050.37,0018.13,0013.93
2022-12-20 22:23:00,,0827.1,5.03,0.00,23.5,22.3,00.0,32.3,25.3,07.8,0004.7,0049.94,0018.17,0013.91
2022-12-20 22:24:00,,0827.5,4.97,0.00,23.5,22.3,00.0,32.3,25.3,07.8,0004.1,0047.70,0018.11,0013.86
2022-12-20 22:25:00,,0827.4,5.01,0.00,23.5,22.3,00.0,32.3,25.4,07.7,0003.9,0049.25,0018.01,0013.74
2022-12-20 22:26:00,,0827.1,5.03,0.00,23.5,22.3,00.0,32.3,25.4,07.7,0003.2,0049.21,0017.92,0013.62
2022-12-20 22:27:00,,0827.1,4.95,0.00,23.5,22.3,00.0,32.3,25.4,07.8,0003.1,0048.44,0017.78,0013.50
2022-12-20 22:28:00,,0827.2,5.02,0.00,23.5,22.3,00.0,32.3,25.3,07.8,0003.3,0049.11,0017.67,0013.39
2022-12-20 22:29:00,,0827.3,5.00,0.00,23.6,22.3,00.0,32.3,25.4,07.8,0003.5,0049.32,0017.69,0013.30
2022-12-20 22:30:00,,0827.4,4.99,0.00,23.5,22.3,00.0,32.3,25.4,07.8,0003.3,0049.81,0017.69,0013.18
2022-12-20 22:31:00,,0827.1,5.03,0.00,23.6,22.3,00.0,32.3,25.4,07.8,0002.7,0052.26,0017.65,0013.04
2022-12-20 22:32:00,,0827.1,4.95,0.00,23.6,22.3,00.0,32.3,25.4,07.8,0002.9,0053.77,0017.60,0012.95
2022-12-20 22:33:00,,0827.0,5.00,0.00,23.6,22.3,00.0,32.4,25.4,07.8,0002.6,0054.00,0017.54,0012.87
2022-12-20 22:34:00,,0827.3,5.01,0.00,23.6,22.3,00.0,32.4,25.4,07.8,0002.7,0055.60,0017.43,0012.78
2022-12-20 22:35:00,,0827.1,4.97,0.00,23.6,22.3,00.0,32.4,25.4,07.8,0003.1,0055.71,0017.37,0012.71
2022-12-20 22:36:00,,0827.1,5.03,0.00,23.6,22.3,00.0,32.4,25.4,07.8,0002.8,0055.16,0017.30,0012.73
2022-12-20 22:37:00,,0827.1,4.96,0.00,23.6,22.3,00.0,32.4,25.4,07.8,0003.0,0055.39,0017.17,0012.75
2022-12-20 22:38:00,,0827.5,5.00,0.00,23.6,22.3,00.0,32.4,25.4,07.8,0003.2,0055.43,0017.13,0012.75
2022-12-20 22:39:00,,0827.2,5.03,0.00,23.6,22.3,00.0,32.4,25.4,07.8,0003.2,0054.49,0017.04,0012.74
2022-12-20 22:40:00,,0827.0,4.97,0.00,23.6,22.3,00.0,32.4,25.4,07.8,0003.3,0053.39,0016.78,0012.71
2022-12-20 22:41:00,,0827.0,5.00,0.00,23.5,22.3,00.0,32.4,25.4,07.9,0003.5,0052.68,0016.70,0012.70
2022-12-20 22:42:00,,0827.0,5.04,0.00,23.5,22.3,00.0,32.4,25.3,07.9,0003.6,0052.39,0016.65,0012.69
2022-12-20 22:43:00,,0826.9,4.95,0.00,23.5,22.3,00.0,32.4,25.3,08.1,0003.7,0050.06,0016.60,0012.65
2022-12-20 22:44:00,,0826.9,5.05,0.00,23.6,22.3,00.0,32.4,25.4,08.1,0003.6,0050.51,0016.59,0012.60
2022-12-20 22:45:00,,0826.9,4.99,0.00,23.6,22.3,00.0,32.4,25.4,08.3,0003.9,0050.54,0016.50,0012.53
2022-12-20 22:46:00,,0826.8,4.98,0.00,23.6,22.3,00.0,32.4,25.4,08.3,0004.3,0051.18,0016.43,0012.43
2022-12-20 22:47:00,,0826.9,5.03,0.00,23.6,22.3,00.0,32.4,25.4,08.2,0004.7,0051.51,0016.36,0012.35
2022-12-20 22:48:00,,0826.9,5.00,0.00,23.6,22.3,00.0,32.4,25.4,08.2,0004.8,0050.88,0016.32,0012.27
2022-12-20 22:49:00,,0827.0,4.98,0.00,23.6,22.3,00.0,32.4,25.4,08.3,0005.0,0050.22,0016.35,0012.23
2022-12-20 22:50:00,,0827.0,5.02,0.00,23.6,22.3,00.0,32.4,25.4,08.2,0004.6,0049.93,0016.28,0012.16
2022-12-20 22:51:00,,0826.9,5.02,0.00,23.6,22.3,00.0,32.4,25.4,08.1,0003.6,0049.62,0016.34,0012.13
2022-12-20 22:52:00,,0826.8,4.95,0.00,23.6,22.3,00.0,32.4,25.4,08.1,0003.2,0048.59,0016.24,0012.09
2022-12-20 22:53:00,,0826.8,5.04,0.00,23.6,22.3,00.0,32.4,25.4,08.1,0003.0,0047.54,0016.17,0012.06
2022-12-20 22:54:00,,0826.8,5.02,0.00,23.6,22.3,00.0,32.4,25.4,08.0,0002.7,0049.39,0016.11,0012.06
2022-12-20 22:55:00,,0826.8,4.95,0.00,23.6,22.3,00.0,32.4,25.4,08.0,0003.0,0049.21,0016.14,0012.09
2022-12-20 22:56:00,,0827.0,5.03,0.00,23.6,22.3,00.0,32.4,25.4,08.0,0002.4,0049.70,0016.19,0012.17
2022-12-20 22:57:00,,0826.8,5.00,0.00,23.6,22.3,00.0,32.4,25.4,08.0,0002.3,0049.62,0016.18,0012.25
2022-12-20 22:58:00,,0827.0,4.97,0.00,23.6,22.3,00.0,32.4,25.4,08.0,0002.2,0047.84,0016.29,0012.34
2022-12-20 22:59:00,,0826.9,5.03,0.00,23.6,22.3,00.0,32.4,25.4,08.1,0002.0,0046.65,0016.31,0012.44
